Tracking 28790 objects as of 19-Apr-2024
HD Live streaming from Space Station
objects crossing your sky now

THORAD AGENA D DEB

Track THORAD AGENA D DEB now!
10-day predictions


NORAD ID: 4171
Int'l Code: 1969-082AP
Perigee: 760.1 km
Apogee: 810.4 km
Inclination: 70.1 °
Period: 100.4 minutes
Semi major axis: 7156 km
RCS: 0.0461 m2 (small)
Launch date: September 30, 1969
Source: United States (US)
Launch site: AIR FORCE WESTERN TEST RANGE (AFWTR)

Note: This is SATELLITE DEBRIS
Your satellite tracking list
Your tracking list is empty




NASA's NSSDC Master Catalog

Two Line Element Set (TLE):
1 04171U 69082AP  24109.52092248  .00002969  00000-0  10736-2 0  9991
2 04171  70.0770 171.6042 0035143 151.6684 208.6363 14.34079668825803
Source of the keplerian elements: AFSPC